カタログに戻る

IRIDIUM 33 DEB

運用中PO
NORAD 46971·DEBRIS·🇺🇸 United States

打ち上げ Sep 14, 1997 から Baikonur Cosmodrome

Loading…

次のパス (今後24時間)

TLE

経年Source: Space-Track

元期: Sep 8, 2026, 03:01 UTC

1 46971U 97051ACD 26251.12637186  .00058748  00000-0  29133-2 0  9991
2 46971  86.3112 203.9900 0010170  69.6972 302.2384 15.17437417682896

AllMySatでIRIDIUM 33 DEBをリアルタイム追跡

Download on the App Store